QPF
0.00 0.00 0.00 0.00 0.00 0.00 0.00 0.00 0.00 0.00 0.00 0.00 0.00 0.00 0.00 0.00 0.00 0.00 0.00 0.00 0.00 0.00 0.00 0.00 0.00 0.00 0.00 0.00 0.00 0.00 0.00 0.00 0.00 0.00 0.00 0.00 0.00 0.00 0.00 0.00 0.00 0.00 0.00 0.00 0.00
0.00 0.00 0.00 0.00 0.00 0.00 0.00 0.00 0.00 0.00 0.00 0.00 0.00 0.00 0.00 0.00 0.00 0.00 0.00 0.00 0.00 0.00 0.00 0.00 0.00 0.00 0.00 0.00 0.00 0.00 0.00 0.00 0.00 0.00 0.00 0.00 0.00 0.00 0.00 0.00 0.00 0.00 0.00 0.00 0.00
0.00 0.00 0.00 0.00 0.00 0.00 0.00 0.00 0.00 0.00 0.00 0.00 0.00 0.00 0.00 0.00 0.00 0.00 0.00 0.00 0.00 0.00 0.00 0.00 0.00 0.00 0.00 0.00 0.00 0.00 0.00 0.00 0.00 0.00 0.00 0.00 0.00 0.00 0.00 0.00 0.00 0.00 0.00 0.00 0.00
0.00 0.00 0.00 0.00 0.00 0.00 0.00 0.00 0.00 0.00 0.00 0.00 0.00 0.00 0.00 0.00 0.00 0.00 0.00 0.00 0.00 0.00 0.00 0.00 0.00 0.00 0.00 0.00 0.00 0.00 0.00 0.00 0.00 0.00 0.00 0.00 0.00 0.00 0.00 0.00 0.00 0.00 0.00 0.00 0.00
0.00 0.00 0.00 0.00 0.00 0.00 0.00 0.00 0.00 0.00 0.00 0.00 0.00 0.00 0.00 0.00 0.00 0.00 0.00 0.00 0.00 0.00 0.00 0.00 0.00 0.00 0.00 0.00 0.00 0.00 0.00 0.00 0.00 0.00 0.00 0.00 0.00 0.00 0.00 0.00 0.00 0.00 0.00 0.00 0.00
0.00 0.00 0.00 0.00 0.00 0.00 0.00 0.00 0.00 0.00 0.00 0.00 0.00 0.00 0.00 0.00 0.00 0.00 0.00 0.00 0.00 0.00 0.00 0.00 0.00 0.00 0.00 0.00 0.00 0.00 0.00 0.00 0.00 0.00 0.00 0.00 0.00 0.00 0.00 0.00 0.00 0.00 0.00 0.00 0.00
0.00 0.00 0.00 0.00 0.00 0.00 0.00 0.00 0.00 0.00 0.00 0.00 0.00 0.00 0.00 0.00 0.00 0.00 0.00 0.00 0.00 0.00 0.00 0.00 0.00 0.00 0.00 0.00 0.00 0.00 0.00 0.00 0.00 0.00 0.00 0.00 0.00 0.00 0.00 0.00 0.00 0.00 0.00 0.00 0.00
0.00 0.00 0.00 0.00 0.00 0.00 0.00 0.00 0.00 0.00 0.00 0.00 0.00 0.00 0.00 0.00 0.00 0.00 0.00 0.00 0.00 0.00 0.00 0.00 0.00 0.00 0.00 0.00 0.00 0.00 0.00 0.00 0.00 0.00 0.00 0.00 0.00 0.00 0.00 0.00 0.00 0.00 0.00 0.00 0.00
0.00 0.00 0.00 0.00 0.00 0.00 0.00 0.00 0.00 0.00 0.00 0.00 0.00 0.00 0.00 0.00 0.00 0.00 0.00 0.00 0.00 0.00 0.00 0.00 0.00 0.00 0.00 0.00 0.00 0.00 0.00 0.00 0.00 0.00 0.00 0.00 0.00 0.00 0.00 0.00 0.00 0.00 0.00 0.00 0.00
0.00 0.00 0.00 0.00 0.00 0.00 0.00 0.00 0.00 0.00 0.00 0.00 0.00 0.00 0.00 0.00 0.00 0.00 0.00 0.00 0.00 0.00 0.00 0.00 0.00 0.00 0.00 0.00 0.00 0.00 0.00 0.00 0.00 0.00 0.00 0.00 0.00 0.00 0.00 0.00 0.00 0.00 0.00 0.00 0.00
0.00 0.00 0.00 0.00 0.00 0.00 0.00 0.00 0.00 0.00 0.00 0.00 0.00 0.00 0.00 0.00 0.00 0.00 0.00 0.00 0.00 0.00 0.00 0.00 0.00 0.00 0.00 0.00 0.00 0.00 0.00 0.00 0.00 0.00 0.00 0.00 0.00 0.00 0.00 0.00 0.00 0.00 0.00 0.00 0.00
0.00 0.00 0.00 0.00 0.00 0.00 0.00 0.00 0.00 0.00 0.00 0.00 0.00 0.00 0.00 0.00 0.00 0.00 0.00 0.00 0.00 0.00 0.00 0.00 0.00 0.00 0.00 0.00 0.00 0.00 0.00 0.00 0.00 0.00 0.00 0.00 0.00 0.00 0.00 0.00 0.00 0.00 0.00 0.00 0.00
0.00 0.00 0.00 0.00 0.00 0.00 0.00 0.00 0.00 0.00 0.00 0.00 0.00 0.00 0.00 0.00 0.00 0.00 0.00 0.00 0.00 0.00 0.00 0.00 0.00 0.00 0.00 0.00 0.00 0.00 0.00 0.00 0.00 0.00 0.00 0.00 0.00 0.00 0.00 0.00 0.00 0.00 0.00 0.00 0.00
0.00 0.00 0.00 0.00 0.00 0.00 0.00 0.00 0.00 0.00 0.00 0.00 0.00 0.00 0.00 0.00 0.00 0.00 0.00 0.00 0.00 0.00 0.00 0.00 0.00 0.00 0.00 0.00 0.00 0.00 0.00 0.00 0.00 0.00 0.00 0.00 0.00 0.00 0.00 0.00 0.00 0.00 0.00 0.00 0.00
0.00 0.00 0.00 0.00 0.00 0.00 0.00 0.00 0.00 0.00 0.00 0.00 0.00 0.00 0.00 0.00 0.00 0.00 0.00 0.00 0.00 0.00 0.00 0.00 0.00 0.00 0.00 0.00 0.00 0.00 0.00 0.00 0.00 0.00 0.00 0.00 0.00 0.00 0.00 0.00 0.00 0.00 0.00 0.00 0.00
0.00 0.00 0.00 0.00 0.00 0.00 0.00 0.00 0.00 0.00 0.00 0.00 0.00 0.00 0.00 0.00 0.00 0.00 0.00 0.00 0.00 0.00 0.00 0.00 0.00 0.00 0.00 0.00 0.00 0.00 0.00 0.00 0.00 0.00 0.00 0.00 0.00 0.00 0.00 0.00 0.00 0.00 0.00 0.00 0.00
0.00 0.00 0.00 0.00 0.00 0.00 0.00 0.00 0.00 0.00 0.00 0.00 0.00 0.00 0.00 0.00 0.00 0.00 0.00 0.00 0.00 0.00 0.00 0.00 0.00 0.00 0.00 0.00 0.00 0.00 0.00 0.00 0.00 0.00 0.00 0.00 0.00 0.00 0.00 0.00 0.00 0.00 0.00 0.00 0.00
0.00 0.00 0.00 0.00 0.00 0.00 0.00 0.00 0.00 0.00 0.00 0.00 0.00 0.00 0.00 0.00 0.00 0.00 0.00 0.00 0.00 0.00 0.00 0.00 0.00 0.00 0.00 0.00 0.00 0.00 0.00 0.00 0.00 0.00 0.00 0.00 0.00 0.00 0.00 0.00 0.00 0.00 0.00 0.00 0.00
0.00 0.00 0.00 0.00 0.00 0.00 0.00 0.00 0.00 0.00 0.00 0.00 0.00 0.00 0.00 0.00 0.00 0.00 0.00 0.00 0.00 0.00 0.00 0.00 0.00 0.00 0.00 0.00 0.00 0.00 0.00 0.00 0.00 0.00 0.00 0.00 0.00 0.00 0.00 0.00 0.00 0.00 0.00 0.00 0.05
0.00 0.00 0.00 0.00 0.00 0.00 0.00 0.00 0.00 0.00 0.00 0.00 0.00 0.00 0.00 0.00 0.00 0.00 0.00 0.00 0.00 0.00 0.00 0.00 0.00 0.00 0.00 0.00 0.00 0.00 0.00 0.00 0.00 0.00 0.00 0.00 0.00 0.00 0.00 0.00 0.00 0.00 0.00 0.00 0.09
0.00 0.00 0.00 0.00 0.00 0.00 0.00 0.00 0.00 0.00 0.00 0.00 0.00 0.00 0.00 0.00 0.00 0.00 0.00 0.00 0.00 0.00 0.00 0.00 0.00 0.00 0.00 0.00 0.00 0.00 0.00 0.00 0.00 0.00 0.00 0.00 0.00 0.00 0.00 0.00 0.00 0.00 0.00 0.00 0.05
0.00 0.00 0.00 0.00 0.00 0.00 0.00 0.00 0.00 0.00 0.00 0.00 0.00 0.00 0.00 0.00 0.00 0.00 0.00 0.00 0.00 0.00 0.00 0.00 0.00 0.00 0.00 0.00 0.00 0.00 0.00 0.00 0.00 0.00 0.00 0.00 0.00 0.00 0.00 0.00 0.00 0.00 0.00 0.01 0.04
0.00 0.00 0.00 0.00 0.00 0.00 0.00 0.00 0.00 0.00 0.00 0.00 0.00 0.00 0.00 0.00 0.00 0.00 0.00 0.00 0.00 0.00 0.00 0.00 0.00 0.00 0.00 0.00 0.00 0.00 0.00 0.00 0.00 0.00 0.00 0.00 0.00 0.00 0.00 0.00 0.00 0.00 0.00 0.00 0.00
0.00 0.00 0.00 0.00 0.00 0.00 0.00 0.00 0.00 0.00 0.00 0.00 0.00 0.00 0.00 0.00 0.00 0.00 0.00 0.00 0.00 0.00 0.00 0.00 0.00 0.00 0.00 0.00 0.00 0.00 0.00 0.00 0.00 0.00 0.00 0.00 0.00 0.00 0.00 0.00 0.00 0.00 0.00 0.00 0.00
0.00 0.00 0.00 0.00 0.00 0.00 0.00 0.00 0.00 0.00 0.00 0.00 0.00 0.00 0.00 0.00 0.00 0.00 0.00 0.00 0.00 0.00 0.00 0.00 0.00 0.00 0.00 0.00 0.00 0.00 0.00 0.00 0.00 0.00 0.00 0.00 0.00 0.00 0.00 0.00 0.00 0.00 0.00 0.00 0.00
0.00 0.00 0.00 0.00 0.00 0.00 0.00 0.00 0.00 0.00 0.00 0.00 0.00 0.00 0.00 0.00 0.00 0.00 0.00 0.00 0.00 0.00 0.00 0.00 0.00 0.00 0.00 0.00 0.00 0.00 0.00 0.00 0.00 0.00 0.00 0.00 0.00 0.00 0.00 0.00 0.00 0.00 0.00 0.00 0.00
0.00 0.00 0.00 0.00 0.00 0.00 0.00 0.00 0.00 0.00 0.00 0.00 0.00 0.00 0.00 0.00 0.00 0.00 0.00 0.00 0.00 0.00 0.00 0.00 0.00 0.00 0.00 0.00 0.00 0.00 0.00 0.00 0.00 0.00 0.00 0.00 0.00 0.00 0.00 0.00 0.00 0.00 0.00 0.00 0.00
MSLP
1018.58 1018.14 1017.62 1017.14 1016.61 1016.06 1015.59 1015.10 1014.69 1014.35 1014.07 1013.51 1012.96 1012.14 1011.59 1010.99 1009.53 1009.20 1008.38 1006.85 1007.22 1007.68 1007.95 1008.68 1009.32 1009.10 1009.10 1008.99 1008.55 1008.65 1009.11 1008.97 1008.64 1008.47 1008.36 1007.29 1007.77 1008.41 1008.31 1008.83 1009.23 1009.52 1009.70 1010.46 1011.83
1018.60 1018.14 1017.67 1017.18 1016.56 1015.99 1015.48 1014.98 1014.51 1013.91 1013.52 1013.13 1012.67 1012.04 1011.53 1011.18 1010.26 1008.44 1006.23 1006.30 1006.70 1007.59 1007.94 1008.07 1008.14 1008.57 1008.80 1008.27 1008.05 1008.32 1008.93 1008.25 1007.75 1007.53 1006.78 1006.46 1007.09 1007.50 1008.17 1008.92 1009.43 1009.67 1010.12 1010.79 1011.73
1018.48 1017.98 1017.51 1017.03 1016.41 1015.81 1015.22 1014.65 1014.29 1013.79 1013.28 1012.88 1012.43 1011.76 1011.31 1011.08 1009.97 1006.90 1005.73 1006.22 1006.67 1007.18 1007.18 1007.12 1007.36 1007.75 1007.96 1007.48 1007.47 1007.71 1007.98 1007.39 1007.09 1006.81 1006.28 1006.63 1007.36 1007.44 1007.84 1008.62 1008.48 1009.37 1010.28 1010.94 1011.74
1018.55 1017.95 1017.45 1016.90 1016.27 1015.60 1015.08 1014.53 1014.05 1013.66 1013.03 1012.65 1012.28 1011.66 1011.08 1010.88 1008.85 1006.00 1005.75 1006.20 1006.84 1007.12 1007.20 1006.93 1006.94 1007.23 1007.18 1006.96 1006.73 1007.16 1007.09 1007.13 1006.62 1005.89 1006.07 1006.59 1007.12 1007.64 1007.36 1007.38 1008.09 1008.69 1009.42 1010.68 1011.62
1018.70 1018.13 1017.47 1016.81 1016.11 1015.52 1014.93 1014.34 1013.76 1013.31 1012.95 1012.58 1012.28 1011.64 1010.80 1010.06 1007.49 1005.81 1005.98 1006.31 1006.72 1006.96 1006.92 1006.76 1006.78 1006.77 1006.93 1006.68 1006.44 1006.42 1006.19 1006.39 1006.05 1006.05 1005.83 1006.31 1006.77 1007.51 1007.52 1007.42 1008.08 1009.03 1009.77 1010.42 1011.13
1018.73 1018.20 1017.62 1016.92 1016.11 1015.42 1014.81 1014.14 1013.56 1012.96 1012.61 1012.38 1012.14 1011.93 1011.29 1009.32 1005.76 1005.58 1005.96 1006.39 1006.33 1006.64 1006.70 1006.54 1006.30 1006.47 1006.47 1006.26 1005.90 1005.52 1005.32 1005.52 1005.40 1005.78 1006.00 1006.65 1007.19 1007.43 1007.17 1007.60 1008.47 1009.21 1009.74 1009.99 1010.31
1018.87 1018.18 1017.55 1016.88 1016.10 1015.42 1014.65 1013.98 1013.21 1012.52 1012.12 1012.00 1011.98 1011.82 1010.78 1007.43 1005.57 1005.73 1005.94 1005.90 1006.06 1006.06 1006.36 1006.04 1005.99 1006.30 1006.34 1006.08 1005.38 1005.34 1006.03 1005.71 1005.46 1006.07 1006.44 1006.68 1007.33 1006.99 1007.31 1007.62 1008.25 1008.82 1009.43 1009.84 1009.89
1018.93 1018.32 1017.58 1016.80 1016.02 1015.19 1014.38 1013.52 1012.56 1011.95 1011.49 1011.49 1011.73 1011.46 1009.42 1005.92 1005.56 1005.51 1005.67 1005.61 1005.56 1005.80 1005.87 1005.46 1005.87 1006.33 1006.30 1006.05 1005.99 1006.32 1006.59 1006.69 1006.41 1006.19 1006.69 1006.82 1007.19 1006.71 1007.44 1007.58 1007.99 1008.48 1009.00 1009.05 1009.19
1018.94 1018.35 1017.63 1016.84 1015.95 1015.09 1014.10 1012.72 1011.83 1011.39 1011.25 1011.35 1011.48 1010.89 1008.28 1005.48 1005.53 1004.67 1004.94 1005.31 1005.14 1005.31 1005.29 1005.19 1005.66 1006.44 1006.54 1007.15 1007.50 1007.51 1007.47 1007.16 1006.64 1006.10 1006.59 1007.26 1007.20 1006.74 1007.58 1007.61 1008.03 1008.17 1008.12 1008.41 1008.95
1018.87 1018.21 1017.48 1016.75 1015.94 1015.03 1013.64 1011.84 1010.97 1011.39 1011.32 1011.40 1010.70 1010.48 1007.25 1005.65 1004.95 1004.68 1004.59 1004.71 1005.24 1005.33 1005.29 1005.50 1006.25 1007.03 1007.79 1008.06 1008.37 1007.97 1007.48 1006.84 1006.56 1005.95 1006.25 1006.69 1006.74 1007.11 1007.24 1007.52 1007.71 1007.96 1007.79 1007.91 1008.36
1018.73 1017.96 1017.22 1016.49 1015.70 1014.97 1013.87 1011.77 1011.46 1011.55 1010.80 1010.11 1009.35 1008.34 1006.69 1005.58 1004.86 1004.40 1004.44 1004.56 1004.96 1005.43 1006.05 1006.39 1007.14 1007.50 1007.74 1007.84 1007.72 1007.71 1007.58 1006.96 1005.48 1005.37 1005.95 1006.21 1006.26 1006.57 1006.51 1007.40 1007.52 1007.57 1007.63 1007.61 1007.68
1018.73 1017.90 1017.03 1016.11 1015.33 1014.72 1014.55 1013.61 1012.93 1013.49 1011.57 1008.92 1008.04 1007.38 1006.13 1005.93 1005.82 1004.26 1004.12 1004.73 1004.99 1005.74 1006.32 1007.16 1007.18 1006.88 1007.05 1007.34 1007.59 1007.58 1007.39 1006.53 1005.57 1005.07 1005.83 1005.77 1005.67 1005.87 1006.40 1006.04 1005.90 1006.12 1006.90 1007.34 1007.67
1018.58 1017.87 1017.06 1015.87 1014.83 1014.41 1014.30 1012.88 1012.18 1012.33 1011.75 1008.41 1007.00 1006.10 1005.02 1005.42 1005.05 1004.16 1004.25 1004.49 1005.04 1005.74 1006.30 1006.89 1006.23 1006.27 1006.67 1006.89 1007.21 1007.12 1006.99 1006.13 1005.90 1005.04 1004.94 1005.18 1005.58 1005.85 1006.26 1006.25 1006.17 1006.44 1006.47 1007.35 1007.10
1018.36 1017.70 1016.97 1015.67 1014.73 1015.00 1013.60 1012.21 1011.70 1011.70 1011.34 1008.07 1006.12 1004.22 1003.95 1004.04 1004.07 1003.35 1003.39 1004.17 1005.02 1005.51 1006.31 1006.38 1005.59 1005.82 1005.87 1006.14 1006.35 1006.58 1005.87 1005.74 1005.90 1006.22 1006.23 1006.14 1006.89 1006.30 1005.89 1006.07 1006.05 1006.04 1006.23 1006.68 1007.11
1018.14 1017.70 1017.15 1016.74 1016.21 1014.99 1012.82 1011.83 1011.20 1011.12 1010.39 1006.20 1004.51 1002.98 1002.96 1003.15 1002.62 1002.78 1002.72 1003.57 1004.50 1005.26 1006.10 1005.61 1005.35 1005.37 1005.33 1005.05 1005.26 1005.23 1005.09 1005.56 1006.12 1007.18 1007.58 1007.46 1007.93 1006.75 1006.57 1006.19 1005.72 1005.54 1005.85 1006.43 1006.94
1017.72 1017.44 1017.06 1016.57 1016.30 1013.54 1012.54 1011.76 1011.14 1011.61 1009.39 1006.11 1004.05 1003.32 1003.38 1002.97 1002.78 1002.65 1002.69 1003.13 1004.04 1005.07 1005.51 1005.41 1004.84 1004.67 1004.16 1003.88 1004.26 1004.48 1005.45 1006.63 1007.63 1008.59 1009.56 1008.21 1008.37 1007.66 1006.91 1005.72 1005.09 1005.02 1005.18 1006.05 1006.62
1017.10 1016.83 1016.98 1016.57 1014.51 1013.03 1012.53 1012.10 1012.56 1011.63 1008.75 1006.49 1005.01 1004.10 1003.67 1003.54 1003.13 1002.95 1003.40 1004.18 1005.02 1005.72 1006.05 1005.47 1004.71 1004.19 1003.78 1003.96 1004.14 1005.02 1006.57 1008.18 1009.99 1010.81 1010.14 1008.91 1008.85 1007.42 1006.10 1005.56 1005.08 1004.82 1005.13 1005.63 1006.40
1016.27 1015.70 1014.83 1014.33 1013.56 1013.28 1013.17 1013.22 1012.76 1010.75 1008.86 1006.66 1005.62 1004.50 1004.11 1003.48 1003.31 1003.36 1003.95 1004.68 1004.97 1005.41 1006.33 1006.05 1005.12 1003.95 1003.51 1003.74 1004.20 1005.18 1006.44 1008.13 1009.85 1010.96 1010.08 1008.98 1008.20 1006.43 1006.23 1005.77 1005.17 1005.09 1005.69 1006.45 1007.64
1015.48 1014.96 1014.57 1012.49 1012.98 1013.47 1013.76 1013.67 1011.96 1010.52 1008.67 1007.48 1006.13 1005.43 1004.84 1004.36 1004.26 1003.88 1004.16 1004.54 1004.57 1004.94 1005.77 1006.03 1004.94 1003.88 1003.35 1003.36 1003.86 1005.11 1006.23 1007.31 1009.28 1010.79 1010.60 1009.43 1008.12 1006.81 1006.30 1006.57 1006.25 1006.61 1006.69 1007.48 1007.70
1015.87 1015.40 1013.56 1011.73 1012.36 1013.03 1013.66 1013.12 1011.67 1009.94 1008.53 1007.65 1007.15 1006.14 1005.68 1005.24 1004.73 1004.41 1004.21 1004.17 1004.11 1004.13 1004.21 1005.15 1005.30 1004.06 1003.35 1003.19 1003.58 1004.10 1005.35 1007.50 1009.29 1010.66 1011.11 1010.03 1009.25 1008.43 1007.86 1007.98 1008.14 1007.96 1007.72 1008.20 1008.20
1015.92 1014.95 1012.05 1011.70 1012.07 1012.99 1013.72 1012.82 1011.11 1008.96 1008.51 1008.06 1007.40 1007.01 1006.17 1005.75 1005.21 1004.74 1004.45 1004.09 1003.80 1003.71 1004.21 1005.24 1005.51 1004.58 1004.00 1003.86 1003.76 1004.57 1005.50 1007.08 1008.80 1009.77 1010.64 1010.64 1009.89 1008.94 1008.37 1008.27 1008.53 1009.02 1008.38 1008.24 1008.88
1016.29 1014.82 1012.05 1012.31 1012.69 1013.57 1013.29 1011.93 1010.44 1009.13 1008.39 1008.06 1007.60 1007.10 1006.42 1005.82 1005.50 1005.02 1004.65 1004.37 1003.77 1003.82 1004.36 1004.75 1005.58 1005.67 1004.81 1004.04 1003.87 1004.21 1004.96 1006.21 1008.56 1009.96 1010.45 1010.20 1009.38 1009.18 1008.97 1008.69 1008.54 1009.51 1009.31 1009.37 1009.05
1016.93 1014.94 1012.38 1012.23 1012.99 1013.52 1012.57 1011.46 1010.17 1009.07 1008.36 1007.88 1007.33 1006.56 1006.16 1005.99 1005.92 1005.45 1005.04 1004.37 1004.02 1004.10 1004.31 1004.89 1005.98 1006.18 1005.53 1004.87 1004.10 1004.36 1004.75 1006.00 1007.26 1008.40 1010.03 1010.25 1009.22 1008.89 1009.33 1008.93 1008.74 1008.77 1008.88 1009.46 1009.07
1017.49 1015.54 1013.47 1012.89 1012.92 1012.68 1012.21 1011.20 1009.86 1008.07 1007.53 1007.18 1006.84 1006.58 1006.21 1006.37 1006.24 1006.00 1005.74 1004.82 1004.44 1004.39 1004.42 1004.82 1006.49 1006.19 1006.00 1005.18 1004.43 1004.43 1004.70 1005.51 1006.45 1007.97 1009.14 1009.15 1008.96 1008.78 1008.70 1008.59 1008.28 1008.26 1008.75 1009.48 1009.75
1017.42 1015.66 1014.05 1013.34 1013.00 1012.61 1011.98 1010.84 1009.72 1008.80 1006.96 1006.34 1006.61 1006.37 1006.26 1006.62 1006.73 1006.80 1006.31 1005.89 1005.11 1005.12 1005.01 1005.59 1006.81 1006.60 1005.87 1005.31 1004.64 1004.19 1004.42 1005.09 1005.85 1006.68 1007.90 1007.65 1008.58 1007.58 1007.11 1006.87 1007.11 1008.08 1008.61 1009.01 1009.11
1017.20 1015.77 1014.24 1013.41 1012.64 1012.12 1011.40 1010.30 1009.39 1008.36 1007.43 1006.56 1006.47 1006.43 1006.38 1006.73 1006.87 1007.06 1006.84 1006.52 1006.46 1006.02 1006.25 1006.70 1007.36 1007.11 1006.71 1005.91 1005.14 1004.43 1004.37 1004.71 1005.33 1006.28 1007.14 1007.20 1007.76 1006.88 1006.92 1007.15 1007.49 1007.19 1007.39 1008.44 1007.63
1016.75 1015.60 1014.90 1013.74 1012.83 1011.87 1011.10 1010.01 1008.84 1008.03 1007.21 1006.61 1006.48 1006.67 1006.82 1006.75 1006.68 1006.71 1006.68 1006.70 1006.81 1006.91 1007.29 1007.70 1007.87 1008.00 1007.67 1006.82 1005.92 1005.57 1005.34 1005.32 1005.82 1006.45 1007.34 1007.94 1007.11 1006.72 1006.79 1006.87 1006.68 1006.84 1006.90 1006.97 1007.03
Thickness
5756 5762 5768 5773 5778 5784 5789 5794 5798 5802 5804 5810 5815 5822 5828 5834 5847 5850 5845 5865 5863 5861 5858 5853 5845 5845 5846 5837 5844 5837 5796 5790 5802 5804 5805 5835 5823 5831 5837 5820 5822 5821 5815 5813 5804
5751 5758 5764 5769 5775 5781 5787 5793 5798 5803 5807 5812 5816 5822 5828 5831 5838 5843 5872 5872 5869 5862 5853 5846 5842 5842 5828 5836 5840 5822 5789 5807 5826 5826 5829 5844 5835 5831 5824 5819 5816 5816 5820 5817 5806
5747 5754 5760 5767 5773 5780 5786 5792 5796 5803 5808 5812 5817 5824 5828 5830 5835 5849 5875 5871 5869 5865 5862 5858 5855 5844 5829 5839 5837 5825 5804 5826 5834 5842 5848 5838 5831 5840 5826 5813 5824 5815 5812 5812 5804
5740 5748 5755 5763 5771 5778 5783 5789 5795 5800 5807 5812 5815 5822 5829 5829 5808 5864 5873 5870 5865 5863 5857 5851 5848 5835 5830 5829 5844 5820 5829 5830 5838 5851 5846 5837 5839 5829 5836 5836 5841 5835 5829 5815 5801
5734 5741 5749 5758 5767 5774 5780 5786 5793 5799 5804 5808 5812 5819 5828 5819 5830 5869 5868 5867 5865 5859 5850 5845 5837 5836 5821 5831 5838 5830 5837 5837 5844 5844 5849 5848 5838 5831 5835 5848 5845 5836 5827 5816 5809
5728 5735 5742 5751 5761 5770 5777 5783 5790 5797 5802 5806 5809 5813 5817 5802 5866 5868 5866 5864 5863 5856 5849 5848 5842 5845 5835 5834 5838 5850 5846 5843 5848 5844 5849 5835 5833 5834 5842 5848 5836 5829 5822 5821 5817
5721 5729 5737 5745 5755 5763 5773 5780 5787 5796 5801 5804 5806 5809 5808 5820 5867 5864 5863 5861 5862 5858 5845 5854 5855 5842 5841 5835 5856 5851 5827 5837 5840 5838 5834 5842 5822 5827 5844 5845 5834 5830 5825 5821 5818
5713 5721 5730 5740 5750 5759 5769 5778 5788 5794 5800 5801 5803 5805 5800 5858 5861 5857 5861 5858 5862 5861 5855 5861 5855 5842 5836 5849 5838 5827 5821 5801 5830 5836 5833 5833 5797 5835 5841 5841 5834 5833 5829 5827 5823
5705 5713 5723 5733 5744 5754 5765 5779 5787 5793 5796 5797 5798 5800 5798 5855 5845 5862 5862 5848 5856 5858 5857 5861 5851 5831 5830 5808 5795 5802 5786 5796 5811 5835 5826 5818 5806 5833 5834 5839 5833 5834 5836 5833 5826
5698 5707 5716 5726 5737 5748 5761 5779 5787 5786 5789 5790 5797 5786 5817 5824 5846 5855 5861 5855 5842 5844 5839 5836 5819 5804 5796 5787 5764 5784 5791 5803 5799 5824 5824 5814 5814 5825 5834 5837 5835 5833 5837 5838 5832
5691 5701 5711 5720 5731 5741 5753 5771 5768 5768 5783 5782 5790 5794 5810 5831 5847 5845 5854 5845 5841 5830 5802 5812 5795 5781 5795 5799 5806 5804 5797 5799 5826 5836 5820 5812 5822 5826 5836 5832 5831 5832 5834 5836 5836
5681 5693 5704 5716 5727 5735 5738 5746 5751 5751 5750 5791 5796 5801 5818 5822 5806 5830 5850 5824 5820 5798 5805 5789 5779 5803 5809 5807 5801 5798 5793 5801 5824 5837 5822 5821 5828 5834 5832 5841 5847 5846 5837 5837 5834
5673 5684 5695 5710 5723 5730 5732 5746 5757 5759 5744 5778 5796 5802 5815 5814 5805 5815 5832 5822 5809 5797 5797 5779 5796 5813 5806 5801 5794 5795 5792 5803 5807 5830 5839 5833 5817 5826 5833 5841 5847 5845 5845 5839 5839
5665 5676 5687 5702 5716 5715 5730 5748 5756 5758 5713 5757 5781 5805 5819 5817 5805 5835 5838 5822 5806 5792 5789 5790 5809 5805 5800 5793 5797 5777 5814 5822 5815 5807 5779 5822 5767 5806 5826 5828 5836 5841 5840 5839 5838
5659 5666 5676 5684 5692 5708 5734 5744 5753 5750 5685 5780 5791 5828 5822 5806 5824 5822 5840 5820 5796 5797 5790 5788 5800 5798 5793 5803 5809 5799 5822 5818 5816 5796 5789 5794 5770 5796 5815 5818 5826 5839 5840 5841 5839
5654 5661 5668 5677 5683 5712 5726 5737 5742 5695 5683 5756 5791 5790 5789 5804 5809 5820 5819 5828 5818 5796 5797 5796 5815 5810 5808 5822 5820 5829 5814 5791 5781 5767 5745 5781 5773 5778 5796 5816 5833 5841 5844 5843 5840
5650 5658 5661 5668 5690 5708 5717 5719 5679 5668 5738 5750 5764 5779 5779 5779 5792 5798 5792 5784 5770 5760 5763 5788 5796 5813 5823 5808 5816 5805 5776 5737 5740 5732 5733 5773 5764 5782 5816 5825 5834 5841 5843 5843 5841
5649 5659 5671 5679 5691 5697 5701 5686 5666 5697 5716 5754 5762 5771 5770 5783 5784 5785 5777 5764 5783 5778 5752 5752 5752 5800 5821 5807 5798 5798 5780 5740 5733 5725 5745 5775 5765 5793 5820 5828 5836 5843 5839 5833 5821
5649 5658 5665 5687 5688 5687 5679 5655 5672 5694 5729 5735 5748 5749 5750 5764 5769 5775 5765 5765 5780 5781 5756 5742 5758 5803 5813 5818 5812 5794 5775 5786 5741 5735 5737 5752 5778 5808 5820 5814 5825 5821 5819 5816 5818
5638 5644 5663 5686 5684 5679 5661 5658 5680 5706 5726 5732 5721 5741 5735 5746 5754 5760 5760 5780 5780 5789 5795 5775 5755 5790 5808 5817 5815 5803 5801 5761 5740 5731 5730 5740 5758 5765 5794 5796 5803 5805 5808 5809 5810
5632 5646 5671 5677 5678 5662 5647 5655 5684 5716 5723 5717 5720 5724 5737 5741 5747 5752 5760 5776 5788 5791 5786 5771 5764 5777 5800 5789 5791 5786 5779 5765 5752 5741 5724 5721 5742 5774 5789 5800 5798 5796 5805 5807 5800
5620 5637 5664 5664 5649 5634 5647 5664 5691 5702 5714 5715 5719 5719 5727 5743 5744 5750 5753 5767 5787 5790 5772 5778 5755 5747 5766 5798 5807 5800 5788 5773 5738 5744 5731 5734 5748 5780 5784 5792 5801 5792 5796 5794 5798
5613 5628 5655 5658 5635 5634 5649 5666 5681 5692 5699 5707 5711 5726 5736 5735 5735 5748 5753 5776 5782 5783 5782 5775 5743 5732 5747 5769 5791 5788 5792 5771 5754 5744 5728 5729 5747 5783 5779 5786 5795 5795 5798 5791 5793
5606 5622 5637 5643 5637 5645 5653 5657 5668 5702 5704 5709 5712 5720 5724 5723 5733 5739 5741 5766 5777 5780 5781 5776 5740 5748 5736 5754 5775 5779 5786 5781 5766 5741 5737 5740 5767 5771 5781 5784 5793 5796 5796 5786 5785
5595 5615 5632 5627 5637 5642 5651 5660 5664 5672 5706 5708 5707 5714 5717 5714 5719 5721 5738 5746 5766 5768 5773 5766 5744 5757 5762 5769 5779 5784 5785 5778 5776 5770 5757 5768 5755 5779 5793 5800 5800 5794 5793 5789 5789
5603 5609 5620 5626 5636 5642 5641 5656 5664 5677 5690 5698 5701 5705 5713 5707 5717 5717 5730 5738 5740 5756 5754 5751 5738 5751 5753 5764 5769 5778 5786 5786 5784 5769 5765 5764 5763 5787 5793 5794 5790 5798 5798 5789 5800
5599 5609 5612 5620 5628 5638 5646 5657 5674 5685 5695 5702 5702 5696 5699 5713 5723 5730 5735 5739 5743 5745 5740 5737 5732 5729 5733 5744 5757 5744 5765 5773 5774 5766 5759 5750 5775 5787 5786 5787 5791 5794 5795 5798 5800